Location: Foulognes
(49.1413°N, 0.8183°W)
Time: 22:17:16
(UTC+00:00)

STARLINK-32 - Pass Details

Date: 21 October 2019
Orbit: 548 x 551 km, 53.0° (Epoch: 10 November)

Event Time Altitude Azimuth Distance (km) Brightness Sun altitude
Rises 18:11:40 0° 276° (W) 2,716 9.1 -12.0°
Reaches altitude 10° 18:13:57 10° 282° (WNW) 1,823 7.6 -12.4°
Maximum altitude 18:17:59 48° 358° (N) 722 4.2 -13.0°
Enters shadow 18:20:36 20° 66° (ENE) 1,306 5.0 -13.5°
